INTELSAT 19 (IS-19) (38356 NORAD) Tracking and Keplerian Element Data

This shows tracking and keplerian element data for the satellite.

Feedback or suggestion? Click here.




ElementValue
Catalog38356
NameINTELSAT 19 (IS-19)
Epoch Orbit2147
Epoch Day198.71817985
Epoch Year2018
RAAN54.6038
Inclination0.0202
Eccentricity0.0002897
Argument of Perigee59.3911
Mean Anonmoly246.0172
Mean Motion1.00271662
Decay Rate-7.7E-07
L11 38356U 12030A 18198.71817985 -.00000077 00000-0 00000-0 0 9999
L22 38356 0.0202 54.6038 0002897 59.3911 246.0172 1.00271662 21472

Live tracking and technical data element details for INTELSAT 19 (IS-19) (NORAD 38356). INTELSAT 19 (IS-19) can be tracked NOW for your location showing map with azimuth and elevation plus other details from your city location.

Track the satellite on the map from your city or location and see movement details for azimuth, elevation, latitude, longitude, range, height, and movement on the map or in text.







IsCatalogInMostPopularTable: catalog: 38356, numindb: 48
Update: records affected: 1



GetName: 38356 INTELSAT 19 (IS-19)

Hit Count: updated at: Sat, 21 Jul 2018 07:45:37 GMT